This demonstration page uses our WeatherBlox Daily Observations layout. Learn more.

Left ArrowRight Arrow

39.92423, -83.80882

Hourly Observations for June 18, 2021

Temp ( °F °C ) Dew Point ( °F °C ) Humidity (%) Winds ( mph kmh ) Pressure ( in mb ) Visibility ( mi km ) Precip ( " mm )
12:56 am 00:56 Clear 70 21.1 59 15 68 68 S 6 9 29.99 1016 10 16 N/A
1:56 am 01:56 Clear 67 19.4 59 15 76 76 S 7 11 30.00 1016 10 16 N/A
2:56 am 02:56 Clear 68 20 59 15 73 73 SSW 5 7 29.98 1015 10 16 N/A
3:56 am 03:56 Clear 67 19.4 59 15 76 76 S 9 15 29.95 1014 10 16 N/A
4:56 am 04:56 Clear 66 18.9 59 15 78 78 S 9 15 29.94 1014 10 16 N/A
5:56 am 05:56 Clear 67 19.4 60 15.6 79 79 SSW 7 11 29.94 1014 10 16 N/A
6:56 am 06:56 Sunny 67 19.4 60 15.6 79 79 SSW 5 7 29.96 1014 10 16 N/A
7:56 am 07:56 Sunny 68 20 61 16.1 78 78 S 6 9 29.95 1014 10 16 N/A
8:56 am 08:56 Sunny 71 21.7 62 16.7 73 73 undefined N/A 29.95 1014 10 16 N/A
9:56 am 09:56 Partly Cloudy 72 22.2 63 17.2 73 73 undefined N/A 29.99 1016 10 16 N/A
10:41 am 10:41 Cloudy with Nearby Thunderstorms 70 21 64 18 83 83 N 17 28 30.01 1016 10 16 0.00 0.00
10:56 am 10:56 Cloudy with Strong Thunderstorms 68 20 67 19.4 96 96 NNW 14 22 30.04 1017 5 8 0.11 2.79
11:51 am 11:51 Mostly Cloudy with Light Rain 64 18 N/A N/A SE 21 33 29.94 1014 6 10 0.17 4.32
11:56 am 11:56 Mostly Cloudy with Light Rain 64 18 N/A N/A SE 18 30 29.94 1014 6 10 0.18 4.57
12:56 pm 12:56 Sunny 66 19 N/A N/A SE 10 17 29.92 1013 10 16 0.00 0.00
1:56 pm 13:56 Sunny 71 21.7 70 21.1 96 96 SSE 17 28 29.92 1013 10 16 N/A
2:56 pm 14:56 Sunny 76 24.4 71 21.7 85 85 undefined N/A 29.89 1012 10 16 N/A
3:56 pm 15:56 Mostly Sunny 81 27.2 73 22.8 77 77 SSW 17 28 29.85 1011 10 16 N/A
4:56 pm 16:56 Sunny 82 27.8 75 23.9 79 79 SSW 10 17 29.82 1010 10 16 N/A
5:56 pm 17:56 Mostly Cloudy with Light Rain 81 27.2 77 25 88 88 SSW 3 6 29.84 1010 10 16 0.00 0.00
6:18 pm 18:18 Partly Cloudy with Nearby Thunderstorms 81 27 77 25 89 89 S 5 7 29.77 1008 9 14 0.00 0.00
6:56 pm 18:56 Partly Cloudy with Strong Thunderstorms 77 25 75 23.9 94 94 SW 20 31 29.80 1009 10 16 0.06 1.52
7:56 pm 19:56 Partly Cloudy with Thunderstorms 66 18.9 66 18.9 100 100 SSW 12 19 29.80 1009 9 14 0.04 1.02
8:56 pm 20:56 Mostly Cloudy with Thunderstorms 69 20.6 68 20 96 96 SSW 17 28 29.81 1010 10 16 0.05 1.27
9:46 pm 21:46 Mostly Cloudy 66 19 66 19 100 100 WSW 17 28 29.84 1010 10 16 N/A
9:56 pm 21:56 Mostly Clear 66 18.9 66 18.9 100 100 SW 20 31 29.87 1012 10 16 N/A
10:56 pm 22:56 Clear 68 20 67 19.4 96 96 SW 14 22 29.89 1012 10 16 N/A
11:56 pm 23:56 Mostly Clear 68 20 N/A N/A WSW 12 19 29.88 1012 10 16 N/A

Powered by AerisWeather